Location: Pandora
(40.9481°N, 83.9611°W)
Time: 13:31:25
(UTC-04:00)

Nauka - Pass Details

Date: 24 September 2021
Orbit: 417 x 423 km, 51.6° (Epoch: 26 October)

Event Time Altitude Azimuth Distance (km) Brightness Sun altitude
Rises 21:07:47 0° 300° (WNW) 2,364 ? -19.3°
Reaches altitude 10° 21:10:46 10° 328° (NNW) 1,501 ? -19.8°
Maximum altitude 21:12:30 13° 359° (N) 1,314 ? -20.1°
Enters shadow 21:13:28 12° 18° (NNE) 1,377 ? -20.3°
